[[{"header":{"parameterUnit":"m.s-1","parameterCategory":1,"la1":30.2991,"la2":30.254,"lo1":-89.0895,"lo2":-89.0444,"dx":0.0017,"dy":0.0017,"nx":28,"ny":28,"refTime":"2023-01-12T15:00:00:Z","depth":0,"parameterNumber":2,"parameterNumberName":"U-component_of_WINDS"},"data":[0,0,0,0,0,0,0,0,0,0,0,0,0,0,0,0,0,0,0,0,0,0,0,0,0,0,0,0,0,0,0,0,0,0,0,0,0,0,0,0,0,0,0,0,0,0,0,0,0,0,0,0,0,0,0,0,0,0,0.5473,0.5474,0,0.5475,0.5475,0.5475,0.5512,0.5513,0.5514,0.5515,0.5514,0.5513,0.5512,0,0,0,0,0,0,0,0,0,0,0,0,0,0.5501,0.55,0.5473,0.5474,0.5474,0.5475,0.5475,0.5475,0.5512,0.5513,0.5514,0.5515,0.5514,0.5513,0.5512,0,0,0,0,0,0,0,0,0,0,0,0,0,0.5494,0.55,0.5473,0.5492,0.5494,0.5475,0.5475,0.5475,0.5511,0.5513,0.5514,0.5516,0.5514,0.5513,0.5512,0.5475,0,0,0.5508,0.5507,0,0,0,0,0,0,0,0,0.5494,0.5493,0.5489,0.5491,0.5493,0.5495,0.5484,0.5475,0.5511,0.5505,0.5515,0.5516,0.5506,0.5506,0.5503,0.5475,0.5475,0.5507,0.5507,0.5506,0.5506,0,0,0,0,0,0,0,0.5495,0.5493,0.5474,0.5489,0.5491,0.55,0.55,0.5483,0.5497,0.5505,0.5508,0.5508,0.5507,0.5504,0.5503,0.5475,0.5507,0.5506,0.5505,0.5505,0.5418,0.5417,0,0,0,0,0,0,0.5493,0.5493,0.5474,0.5474,0.5497,0.5498,0.5499,0.5493,0.5498,0.55,0.5507,0.551,0.5505,0.5504,0.5503,0.5461,0.5506,0.5505,0.5504,0.5419,0.5418,0.5416,0,0,0,0,0,0,0.5493,0.5491,0.5474,0.5485,0.5483,0.5496,0.5489,0.5492,0.5489,0.5499,0.5501,0.55,0.5507,0.5505,0.5482,0.5461,0.5504,0.5503,0.5421,0.5419,0.5417,0.5375,0,0,0,0,0,0,0.5494,0.5491,0.5477,0.5484,0.5482,0.5453,0.5488,0.5491,0.5486,0.549,0.5494,0.5495,0.5508,0.5484,0.5481,0.546,0.5502,0.5423,0.542,0.5417,0.5378,0.5372,0.5366,0,0,0,0,0,0.5495,0.5464,0.5476,0.5474,0.5465,0.5452,0.5451,0.5466,0.5485,0.5471,0.5478,0.5495,0.5464,0.5481,0.5478,0.5456,0.5424,0.5421,0.5418,0.5381,0.5373,0.5366,0,0,0,0,0,0,0.5453,0.5465,0.5479,0.545,0.545,0.5458,0.5441,0.5457,0.5451,0.5454,0.5473,0.5473,0.5448,0.545,0.5469,0.5422,0.5448,0.5443,0.5421,0.5413,0.5407,0.5407,0.5501,0,0,0,0,0,0.5441,0.5429,0.5441,0.5414,0.5413,0.5427,0.5422,0.5434,0.5434,0.5434,0.5439,0.5438,0.5428,0.5421,0.5412,0.5379,0.5381,0.5363,0.5357,0.5352,0.5348,0.5331,0.5324,0.5405,0.5405,0.5405,0,0,0.5414,0.542,0.5411,0.5406,0.5407,0.5394,0.5427,0.5411,0.5402,0.5431,0.541,0.5414,0.5414,0.5386,0.5374,0.5387,0.5326,0.5348,0.5343,0.5342,0.5327,0.5319,0.5312,0.5403,0.5403,0.5403,0,0,0.536,0.5363,0.5342,0.5343,0.5345,0.5355,0.535,0.5357,0.5361,0.534,0.5362,0.5351,0.5334,0.5333,0.5331,0.5279,0.5295,0.5276,0.5243,0.5226,0.522,0.5214,0.5196,0.5189,0.5272,0.5271,0.5271,0,0.5327,0.5309,0.5328,0.5312,0.5309,0.5337,0.5315,0.5315,0.5314,0.5311,0.5326,0.5306,0.5308,0.5281,0.5269,0.5266,0.526,0.5274,0.522,0.5214,0.5209,0.5192,0.5185,0.5269,0.5269,0.527,0.527,0,0.5268,0.5256,0.5238,0.5238,0.5233,0.5214,0.523,0.5223,0.5236,0.5244,0.5224,0.5228,0.5221,0.5216,0.5227,0.519,0.5199,0.5216,0.5243,0.5199,0.5183,0.5176,0.5266,0.5266,0.5267,0.5268,0,0,0.5185,0.5198,0.5191,0.5192,0.5197,0.5188,0.5171,0.5165,0.5159,0.5158,0.5144,0.5129,0.5147,0.5144,0.5156,0.5142,0.5101,0.5162,0.5162,0.515,0.5061,0.5047,0.5039,0.5113,0.5112,0.5111,0.5061,0,0.5133,0.5105,0.5122,0.5091,0.508,0.5107,0.5093,0.5094,0.5102,0.5094,0.5102,0.5092,0.5115,0.5114,0.5101,0.5109,0.5083,0.5113,0.5099,0.5099,0.5098,0.5031,0.5015,0.4968,0.5055,0.5054,0.5053,0,0.5067,0.5065,0.5033,0.5042,0.5038,0.5025,0.5022,0.5014,0.5017,0.5023,0.5021,0.5038,0.5022,0.5049,0.5027,0.5047,0.5043,0.5046,0.5044,0.5043,0.5072,0.5027,0.4953,0.4946,0.5043,0.5044,0.5045,0,0.501,0.4999,0.4979,0.4978,0.4989,0.4979,0.4982,0.4987,0.4983,0.4981,0.4978,0.4974,0.4971,0.4967,0.4982,0.5,0.4958,0.4986,0.4963,0.4963,0.4952,0.4952,0.4876,0.495,0.495,0.4951,0.4951,0,0.4949,0.4928,0.4953,0.494,0.4918,0.4939,0.4917,0.4923,0.4928,0.4917,0.494,0.4929,0.495,0.4942,0.4954,0.4934,0.4933,0.4937,0.4941,0.4935,0.4934,0.4931,0.4935,0.4949,0.4949,0.4949,0.495,0,0.488,0.4896,0.4876,0.4888,0.4891,0.4874,0.4884,0.4873,0.4884,0.487,0.4868,0.4883,0.4875,0.489,0.4883,0.4891,0.4864,0.4872,0.4863,0.4865,0.4841,0.4843,0.476,0.475,0.4831,0.483,0.4829,0,0.4839,0.4824,0.4836,0.4831,0.4834,0.4825,0.4822,0.4842,0.4838,0.4841,0.483,0.4824,0.4819,0.4804,0.4815,0.481,0.4818,0.479,0.4817,0.4813,0.4818,0.4818,0.4817,0.4783,0.4782,0.4782,0.4781,0,0.4766,0.4775,0.477,0.4768,0.4764,0.4763,0.4763,0.4758,0.478,0.4774,0.4766,0.4763,0.4757,0.475,0.4748,0.4752,0.477,0.4773,0.4767,0.476,0.4755,0.4758,0.4846,0.4774,0.4775,0.4775,0.4776,0.4776,0.4709,0.4698,0.4705,0.4698,0.4702,0.4702,0.4693,0.4703,0.4697,0.4694,0.4707,0.4696,0.4701,0.4701,0.4703,0.4695,0.4707,0.4699,0.4697,0.4694,0.469,0.4758,0.4695,0.4695,0.4695,0.4695,0.4695,0,0.4637,0.4643,0.4637,0.4639,0.4634,0.4653,0.4656,0.465,0.4641,0.4645,0.4641,0.4632,0.4627,0.4638,0.4634,0.4625,0.4634,0.4624,0.4624,0.4625,0.4679,0.4685,0.4617,0.4617,0.4617,0.4617,0.4617,0.4617,0.4598,0.458,0.459,0.4574,0.4581,0.4571,0.4571,0.4572,0.4575,0.4565,0.4561,0.4569,0.4575,0.4573,0.4568,0.4572,0.4569,0.4556,0.4562,0.4613,0.4621,0.4628,0.4633,0.4556,0.4555,0.4508,0.4508,0.4508]},{"header":{"parameterUnit":"m.s-1","parameterCategory":1,"la1":30.2991,"la2":30.254,"lo1":-89.0895,"lo2":-89.0444,"dx":0.0017,"dy":0.0017,"nx":28,"ny":28,"refTime":"2023-01-12T15:00:00:Z","depth":0,"parameterNumber":3,"parameterNumberName":"V-component_of_WINDS"},"data":[0,0,0,0,0,0,0,0,0,0,0,0,0,0,0,0,0,0,0,0,0,0,0,0,0,0,0,0,0,0,0,0,0,0,0,0,0,0,0,0,0,0,0,0,0,0,0,0,0,0,0,0,0,0,0,0,0,0,-6.7328,-6.7329,0,-6.7469,-6.747,-6.7472,-6.7396,-6.7392,-6.7388,-6.7385,-6.7523,-6.753,-6.7537,0,0,0,0,0,0,0,0,0,0,0,0,0,-6.6985,-6.6992,-6.7328,-6.7329,-6.7331,-6.7469,-6.747,-6.7472,-6.7396,-6.7392,-6.7387,-6.7383,-6.752,-6.7529,-6.7538,0,0,0,0,0,0,0,0,0,0,0,0,0,-6.7131,-6.6994,-6.7327,-6.731,-6.731,-6.7468,-6.7471,-6.7473,-6.7397,-6.7392,-6.7386,-6.7381,-6.7517,-6.7528,-6.7539,-6.772,0,0,-6.7572,-6.7577,0,0,0,0,0,0,0,0,-6.7123,-6.7144,-6.7311,-6.7312,-6.7312,-6.7409,-6.74,-6.7556,-6.7399,-6.7364,-6.7384,-6.7378,-6.7489,-6.7502,-6.7541,-6.7727,-6.7732,-6.7573,-6.7579,-6.7584,-6.7587,0,0,0,0,0,0,0,-6.7113,-6.7137,-6.7383,-6.7313,-6.7314,-6.7293,-6.7307,-6.7429,-6.7457,-6.7367,-6.7361,-6.738,-6.7488,-6.753,-6.7543,-6.7735,-6.7573,-6.7582,-6.7589,-6.7593,-6.8074,-6.808,0,0,0,0,0,0,-6.7105,-6.7129,-6.7379,-6.7387,-6.7201,-6.7304,-6.732,-6.7383,-6.7455,-6.7461,-6.7384,-6.7375,-6.7515,-6.7531,-6.7548,-6.7764,-6.7584,-6.7594,-6.76,-6.8068,-6.8075,-6.8082,0,0,0,0,0,0,-6.7098,-6.7128,-6.7373,-6.7257,-6.7287,-6.7316,-6.7388,-6.7389,-6.7431,-6.7469,-6.7472,-6.7423,-6.7511,-6.7533,-6.7678,-6.7768,-6.7599,-6.7609,-6.806,-6.807,-6.8079,-6.8199,0,0,0,0,0,0,-6.7088,-6.7126,-6.7197,-6.7259,-6.7293,-6.7503,-6.7393,-6.7396,-6.7451,-6.7441,-6.7506,-6.7511,-6.7508,-6.7662,-6.7689,-6.778,-6.7617,-6.8052,-6.8065,-6.8076,-6.8187,-6.8211,-6.8232,0,0,0,0,0,-6.7076,-6.7224,-6.7201,-6.7231,-6.7383,-6.7509,-6.7528,-6.7523,-6.7459,-6.7529,-6.7553,-6.7509,-6.7754,-6.7678,-6.7707,-6.7803,-6.8047,-6.8061,-6.8075,-6.8177,-6.8206,-6.8231,0,0,0,0,0,0,-6.7169,-6.7232,-6.7207,-6.738,-6.744,-6.7496,-6.7585,-6.7555,-6.7633,-6.762,-6.7608,-6.7624,-6.7775,-6.7803,-6.7717,-6.7981,-6.789,-6.7911,-6.7957,-6.7986,-6.8008,-6.7997,-6.7626,0,0,0,0,0,-6.721,-6.7309,-6.7357,-6.7505,-6.7537,-6.7556,-6.761,-6.7601,-6.7662,-6.7687,-6.7721,-6.778,-6.7869,-6.7929,-6.8014,-6.819,-6.8202,-6.827,-6.8293,-6.8311,-6.8329,-6.8422,-6.8453,-6.8129,-6.8128,-6.8128,0,0,-6.7295,-6.7341,-6.7404,-6.7525,-6.757,-6.7671,-6.7577,-6.7688,-6.7762,-6.7703,-6.7843,-6.787,-6.7934,-6.8096,-6.8168,-6.8124,-6.8421,-6.8329,-6.8343,-6.8351,-6.844,-6.8471,-6.8498,-6.8138,-6.8136,-6.8135,0,0,-6.7501,-6.7547,-6.7674,-6.7722,-6.7793,-6.7804,-6.7835,-6.7896,-6.7912,-6.8053,-6.801,-6.8096,-6.8252,-6.8299,-6.8344,-6.8567,-6.8529,-6.8595,-6.8712,-6.8803,-6.8829,-6.8851,-6.893,-6.8958,-6.8612,-6.8613,-6.8613,0,-6.7597,-6.7749,-6.7743,-6.7858,-6.7911,-6.7864,-6.7991,-6.8037,-6.8131,-6.8168,-6.8117,-6.8311,-6.8351,-6.8522,-6.8577,-6.8615,-6.8647,-6.8587,-6.8826,-6.8849,-6.887,-6.8944,-6.8974,-6.862,-6.8619,-6.8618,-6.8618,0,-6.7863,-6.7969,-6.8063,-6.8157,-6.8221,-6.8341,-6.8351,-6.8416,-6.8401,-6.8418,-6.856,-6.8606,-6.8699,-6.8739,-6.8725,-6.8908,-6.8878,-6.8827,-6.8736,-6.8908,-6.8978,-6.9007,-6.8631,-6.8628,-6.8626,-6.8624,0,0,-6.8132,-6.8221,-6.8256,-6.8298,-6.8372,-6.8452,-6.8569,-6.8662,-6.8717,-6.8783,-6.8879,-6.9012,-6.8965,-6.9016,-6.9006,-6.9087,-6.9259,-6.9025,-6.9026,-6.9066,-6.9462,-6.9499,-6.9533,-6.9234,-6.924,-6.9244,-6.9456,0,-6.8343,-6.855,-6.8548,-6.8739,-6.8835,-6.8791,-6.8892,-6.8948,-6.8966,-6.9048,-6.9066,-6.916,-6.9092,-6.9122,-6.92,-6.9222,-6.9338,-6.9206,-6.9322,-6.9326,-6.9307,-6.957,-6.961,-6.9808,-6.9483,-6.9488,-6.9491,0,-6.8617,-6.8694,-6.8895,-6.8954,-6.8994,-6.9086,-6.917,-6.9251,-6.9311,-6.9318,-6.9375,-6.9352,-6.9468,-6.9374,-6.9532,-6.9443,-6.9489,-6.9507,-6.9515,-6.9525,-6.9419,-6.9586,-6.9871,-6.9901,-6.9534,-6.9531,-6.9528,0,-6.8792,-6.8945,-6.9086,-6.9122,-6.9195,-6.926,-6.9293,-6.9348,-6.9404,-6.9476,-6.9512,-6.9596,-6.9642,-6.9707,-6.9707,-6.9638,-6.9867,-6.9773,-6.9874,-6.9875,-6.9924,-6.9921,-7.022,-6.9956,-6.9955,-6.9955,-6.9954,0,-6.9027,-6.9152,-6.9165,-6.9252,-6.9389,-6.9383,-6.9519,-6.9545,-6.9594,-6.9682,-6.9648,-6.9731,-6.9727,-6.9811,-6.9811,-6.9942,-6.9963,-6.997,-6.9969,-6.9973,-6.9972,-7.0003,-6.9989,-6.9963,-6.9961,-6.9959,-6.9958,0,-6.9246,-6.9261,-6.941,-6.9467,-6.9484,-6.9583,-6.9629,-6.971,-6.9724,-6.9837,-6.9863,-6.9885,-6.9981,-6.9988,-7.0099,-7.0099,-7.0258,-7.0241,-7.0238,-7.0235,-7.0336,-7.0326,-7.0665,-7.0709,-7.0416,-7.0419,-7.0422,0,-6.9396,-6.9491,-6.9558,-6.9616,-6.9653,-6.9746,-6.9803,-6.98,-6.986,-6.9936,-7.0007,-7.01,-7.0175,-7.0331,-7.0356,-7.044,-7.0425,-7.0538,-7.0437,-7.0438,-7.0425,-7.042,-7.0428,-7.0557,-7.056,-7.0563,-7.0565,0,-6.9659,-6.9661,-6.9745,-6.9833,-6.9902,-6.997,-7.0033,-7.0081,-7.0085,-7.0154,-7.0254,-7.0312,-7.0426,-7.0519,-7.0601,-7.0631,-7.0599,-7.0597,-7.0625,-7.063,-7.0624,-7.0628,-7.0291,-7.0589,-7.0587,-7.0585,-7.0584,-7.0583,-6.9847,-6.9929,-6.9989,-7.0084,-7.0131,-7.0191,-7.0269,-7.0294,-7.0377,-7.0471,-7.0464,-7.0573,-7.0629,-7.0737,-7.0774,-7.0858,-7.0819,-7.086,-7.087,-7.088,-7.089,-7.0611,-7.0873,-7.0872,-7.0871,-7.0871,-7.087,0,-7.0107,-7.0144,-7.0231,-7.0321,-7.0395,-7.036,-7.0427,-7.0491,-7.0589,-7.0645,-7.0719,-7.0832,-7.0922,-7.0954,-7.104,-7.1101,-7.1088,-7.1124,-7.1119,-7.1126,-7.092,-7.0887,-7.1133,-7.1133,-7.1133,-7.1132,-7.1132,-7.1132,-7.0252,-7.0388,-7.0398,-7.0556,-7.0591,-7.07,-7.0741,-7.0795,-7.084,-7.0969,-7.1043,-7.1064,-7.1109,-7.1199,-7.1278,-7.1285,-7.1318,-7.136,-7.136,-7.1167,-7.1141,-7.1115,-7.1084,-7.1367,-7.1368,-7.1559,-7.1561,-7.1562]}]]